Regional Weather Roundup
Issued by NWS Midland/Odessa, TX

Skip options and go directly to product.
Home | Oldest Version | Previous Version | Current Version | All | Graphics & Text | Save Text | Print | Product List | Glossary On

Skip product version selection by date and time.   
950
ASUS44 KMAF 122010
RWRMAF
MIDLAND AREA WEATHER ROUNDUP
NATIONAL WEATHER SERVICE MIDLAND TX
200 PM CST FRI FEB 12 2016

...IN SOUTHWEST TEXAS AND SOUTHEAST NEW MEXICO...

CITY           SKY/WX    TMP DP  RH WIND       PRES   REMARKS
ALPINE         SUNNY     75  11   8 SE5       30.32F
ANDREWS        FAIR      73  29  20 SE10      30.26F
ARTESIA        SUNNY     64  27  24 N8G15     30.28F
BIG SPRING     SUNNY     70  32  24 NE10      30.28F
CARLSBAD       SUNNY     67  26  21 N8        30.27F
DRYDEN           N/A     80  24  12 S10       30.19F
FORT STOCKTON  SUNNY     71  25  17 NE7       30.26F
GUAD PASS      SUNNY     67  15  13 VRB6      30.34F
HOBBS          SUNNY     70  21  16 SE10      30.27F
MARFA          SUNNY     74   3   6 S8        30.31F
MIDLAND AIRPK  SUNNY     74  27  17 E9        30.26F
MIDLAND INTL   SUNNY     73  27  18 VRB6      30.25F
ODESSA         SUNNY     73  29  19 E10       30.26F
PECOS          SUNNY     71  27  19 N6        30.25F
PRESIDIO       FAIR      73  20  13 SW3       30.25F
SEMINOLE       SUNNY     73  24  16 SE7       30.27F
SNYDER           N/A     68  31  25 NE9       30.28F
WINK           SUNNY     72  25  17 CALM      30.23F
$$
...OTHER STATIONS IN TEXAS...

CITY           SKY/WX    TMP DP  RH WIND       PRES   REMARKS
ABILENE        SUNNY     71  29  21 NE12      30.27F
AMARILLO       SUNNY     64  27  24 SE15G21   30.32F
AUSTIN         SUNNY     77  40  26 N12       30.19F
BROWNSVILLE    SUNNY     79  58  48 S15G23    30.18F
CORPUS CHRISTI MOSUNNY   82  54  37 S8        30.16F
DALLAS FTW     SUNNY     67  36  31 VRB5      30.27F
DEL RIO        SUNNY     79  35  20 CALM      30.17F
EL PASO        SUNNY     69  12  11 CALM      30.27F
HOUSTON INT    MOSUNNY   75  56  51 SW7       30.19F
LUBBOCK        MOSUNNY   67  25  20 E10G17    30.29F
SAN ANGELO     SUNNY     73  33  23 NE10      30.24F
SAN ANTONIO    SUNNY     79  44  28 SE5       30.19F
WACO           SUNNY     72  38  29 NE13      30.23F
WICHITA FALLS  NOT AVBL
$$
...OTHER LOCATIONS IN NEW MEXICO...

CITY           SKY/WX    TMP DP  RH WIND       PRES   REMARKS
ALAMAGORDO     SUNNY     70  10  10 CALM      30.28F
ALBUQUERQUE    SUNNY     62  18  18 N6        30.34F
CANNON AFB     SUNNY     64  26  23 SE15G22   30.28F
CLOVIS         SUNNY     66  27  22 SE15      30.30F
HOLLOMAN AFB   SUNNY     70   9   9 W3        30.26F
ROSWELL        SUNNY     66  22  18 N8        30.27F
RUIDOSO        SUNNY     64   9  11 SE8       30.37F
SANTA FE       SUNNY     60  16  18 VRB6      30.35F
TRUTH OR CONSE SUNNY     68  12  11 N5        30.30F
TUCUMCARI      SUNNY     64  24  21 SE7       30.30F
$$

USA.gov is the U.S. government's official web portal to all federal, state and local government web resources and services.